Location: Kitchener-Waterloo
(43.4500°N, 80.5000°W)
Time: 16:02:17
(UTC-04:00)

Daily predictions for brighter satellites

Satellite Brightness Start Highest point End
(mag) Time Altitude Azimuth Time Altitude Azimuth Time Altitude Azimuth
Cosmos 1825 Rocket 3.6 21:35:06 10° S 21:39:33 78° E 21:44:02 10° N
SL-8 R/B 3.8 21:35:30 10° SW 21:40:13 56° SSE 21:44:57 10° ENE
Cosmos 2278 Rocket 3.7 21:38:59 10° SE 21:42:19 16° E 21:45:40 10° ENE
ARGOS 3.4 21:37:41 10° SSE 21:42:57 56° ENE 21:48:16 10° N
Cosmos 1315 Rocket 2.8 21:40:22 10° S 21:44:25 78° E 21:48:33 10° NNE
MetOp-A 4.3 21:43:53 10° SSE 21:49:08 60° ENE 21:54:26 10° N
Spot 2 Rocket 3.9 21:45:03 10° S 21:50:04 67° WSW 21:55:08 10° NNW
Cosmos 1844 Rocket 2.7 21:52:56 10° SSW 21:58:34 69° ESE 22:04:12 10° NNE
COSMOS 2406 3.6 21:53:18 10° NNW 21:58:58 53° ENE 22:04:22 11° SE
Cosmos 1844 3.8 21:59:20 10° S 22:04:55 60° ESE 22:10:36 10° NNE
SL-08 RB Rocket 3.8 22:01:33 10° SSE 22:06:11 69° ENE 22:10:50 10° N
ATLAS 3B R/B 2.9 22:00:15 10° NNW 22:06:51 60° NE 22:12:52 12° SE
Cosmos 1110 Rocket 4.0 22:03:28 10° NNW 22:08:40 75° ENE 22:13:32 12° SSE
Cosmos 1238 Rocket 2.4 22:05:46 10° SSW 22:08:41 68° W 22:11:48 10° N
KORONAS-FOTON 4.3 22:05:42 10° SSE 22:09:23 43° E 22:13:07 10° NNE
Cosmos 2285 Rocket 4.2 22:03:42 10° SSW 22:10:01 79° WNW 22:16:22 10° NNE
SPOT 5 3.8 22:06:25 12° SE 22:10:49 39° ENE 22:15:44 10° N
USA 238 DEB 3.9 22:03:52 10° NW 22:11:03 82° NE 22:17:40 13° SE
USA 238 3.9 22:03:59 10° NW 22:11:09 81° NE 22:17:45 13° SE
Cosmos 2084 4.0 22:08:59 10° NW 22:12:39 44° WSW 22:16:07 11° SSE
Cosmos 1346 Rocket 3.0 22:10:43 10° NNW 22:14:44 73° W 22:18:46 10° S
ATLAS 5 CENTAUR R/B 3.2 22:14:23 14° SE 22:15:50 16° ESE 22:18:39 10° ENE
Lacrosse 5 2.8 22:11:01 10° WSW 22:15:58 54° NW 22:20:57 10° NE
Cosmos-2242 3.2 22:12:09 10° NNW 22:16:33 76° W 22:20:56 10° S
Cosmos 1331 Rocket 4.0 22:15:52 10° NNW 22:21:05 85° ENE 22:25:39 14° SSE
Iridium 18 4.5 22:18:12 10° S 22:21:32 76° E 22:25:27 10° N
S3M 4.2 22:16:17 10° SSE 22:22:26 56° E 22:28:41 10° NNE
NOSS 3-2 (A) 4.2 22:15:08 10° NNW 22:22:36 68° NE 22:29:42 15° SE
Meteor 1-24 Rocket 4.2 22:16:43 10° SSW 22:22:43 71° W 22:28:44 10° N
Cosmos 494 Rocket 4.0 22:18:43 10° SSW 22:23:57 83° ESE 22:29:16 10° NNE
H-2A R/B 2.2 22:18:58 10° S 22:24:15 80° WSW 22:29:43 10° NNW
SPOT 1/Viking Rocket 4.0 22:20:08 14° SE 22:24:16 49° ENE 22:29:13 10° N
Timation 1 Rocket 4.4 22:20:18 10° SSW 22:26:16 86° WNW 22:32:17 10° NNE
Cosmos 2082 Rocket 3.8 22:23:52 10° N 22:28:26 24° NE 22:32:58 10° ESE
Cosmos 1833 Rocket 4.1 22:24:36 10° N 22:29:17 26° NE 22:33:38 11° ESE
Helios 1A 3.4 22:28:25 18° SE 22:31:21 50° ENE 22:35:27 10° N
Helios 1B rocket 3.4 22:28:09 10° NE 22:31:43 28° E 22:33:41 19° SE
Cosmos 1626 3.9 22:31:41 15° ESE 22:32:43 17° E 22:35:10 10° NE
Cosmos 1908 3.5 22:30:54 10° NNW 22:34:44 65° W 22:38:07 13° S
Cosmos 1842 Rocket 3.6 22:31:51 10° N 22:36:11 63° E 22:39:11 19° SSE
CZ-2C R/B 4.1 22:33:50 10° NE 22:37:37 19° E 22:39:35 16° ESE
ATLAS 2AS CENTAUR R/B 3.4 22:31:06 10° SW 22:38:56 71° NW 22:47:06 10° NNE
Cosmos 1340 2.6 22:36:13 10° N 22:40:02 86° ENE 22:42:33 20° S
CSL-04 DEB 4.4 22:40:29 17° S 22:43:23 74° WSW 22:47:21 10° NNW
Cosmos 1553 Rocket 4.0 22:38:58 10° S 22:45:02 86° W 22:51:10 10° N
Landsat 7 4.0 22:42:27 20° SSE 22:45:38 62° ENE 22:50:21 10° N
NOSS 3-2 (C) 4.2 22:40:59 10° NNW 22:48:30 71° NE 22:54:47 19° SE
Cosmos 1302 Rocket 4.0 22:44:46 10° NNW 22:50:05 85° ENE 22:53:36 22° SSE
ERS-1 Rocket 3.4 22:46:45 14° S 22:51:02 61° WSW 22:56:03 10° NNW
DMSP B5D2-2 4.1 22:45:50 10° NNE 22:51:06 89° E 22:56:19 10° SSW
Cosmos 1674 4.1 22:51:49 10° SW 22:55:22 37° WNW 22:58:58 10° N
Cosmos 1455 4.2 22:55:43 10° NNE 22:58:00 15° ENE 22:59:05 14° E
Cosmos 1300 2.6 22:55:52 10° N 22:59:42 74° E 23:01:28 30° SSE
Meteor 2-10 4.5 22:55:06 10° NNW 23:00:29 64° W 23:04:53 16° S
Cosmos 2251 Rocket 3.5 22:57:46 10° SSW 23:03:07 88° WNW 23:08:29 10° NNE
Cosmos 1386 Rocket 4.4 22:57:04 10° N 23:03:10 88° E 23:07:22 21° S
Cosmos 1726 3.3 23:01:06 10° NNW 23:04:36 38° W 23:07:13 16° SSW
Terra 1.9 23:02:30 26° SE 23:05:04 63° ENE 23:09:47 10° N
Cosmos 2315 Rocket 4.3 23:02:11 22° SSE 23:06:03 51° E 23:12:11 10° NNE
Cosmos 2221 2.5 23:01:50 10° N 23:06:10 70° E 23:08:11 30° SSE
RESURS DK-1 3.6 23:06:04 24° ESE 23:06:11 24° ESE 23:09:33 10° NE
Okean 3 Rocket 4.2 23:06:52 29° SE 23:08:23 39° E 23:12:28 10° NNE
H-2A R/B 4.2 23:09:34 21° SSE 23:12:28 25° SE 23:33:22 10° E
NOSS 2-2 (E) 3.4 23:11:46 25° S 23:13:48 57° ESE 23:18:06 10° NE
CENTAUR R/B 3.5 23:06:06 10° NNW 23:13:50 57° NE 23:20:12 19° ESE
Meteor 1-29 2.8 23:11:26 10° NNE 23:14:50 65° ESE 23:15:42 44° SSE
OAO 3 Rocket 4.5 23:11:16 10° WSW 23:15:08 23° SSW 23:15:31 23° S
NOSS 3-4 (A) 3.4 23:10:02 10° SSW 23:16:11 79° ESE 23:22:38 10° NE
NOSS 3-4 (C) 3.4 23:10:07 10° SSW 23:16:16 79° ESE 23:22:42 10° NE
Cosmos 1328 3.8 23:21:27 40° SSE 23:22:40 62° E 23:26:35 10° NNE
CZ-2C R/B 3.3 23:19:33 28° SSE 23:22:50 80° ENE 23:28:35 10° N
SL-8 R/B 4.4 23:18:04 10° W 23:22:50 56° NNW 23:27:36 10° ENE
Cosmos 1461 3.4 23:18:20 10° SW 23:22:58 72° NW 23:27:45 10° NNE
Cosmos 2278 Rocket 2.4 23:20:01 10° SSW 23:25:41 75° WNW 23:31:24 10° NNE
ATLAS 3B CENTAUR R/B 4.1 23:20:37 10° SW 23:33:00 28° S 23:35:02 26° SSE
Spot 4 4.4 23:33:05 31° ESE 23:34:58 48° ENE 23:39:39 10° N
IGS 5A 4.0 23:33:19 30° SSW 23:35:03 51° W 23:39:07 10° NNW
Nimbus 7 Rocket 4.4 23:31:24 10° NNE 23:37:28 82° ESE 23:41:14 25° S
Cosmos 1441 Rocket 4.4 23:35:44 10° NNE 23:39:03 28° ENE 23:39:34 27° E
NOSS 2-2 (D) 3.3 23:42:34 26° SW 23:44:40 84° NW 23:49:05 10° NE
CARTOSAT-1 4.5 23:43:53 27° SSW 23:45:42 41° W 23:49:49 10° NNW
Cosmos 405 Rocket 3.8 23:48:07 10° NNE 23:51:24 29° ENE 23:51:43 28° E
Cosmos 2369 Rocket 4.0 23:54:56 15° E 23:55:04 16° E 23:58:16 10° ENE
